Back to catalog

STARLINK-3458

AliveCommunicationsVLEO
NORAD 51758·PAYLOAD·🇺🇸 United States

Launched Feb 21, 2022 from Cape Canaveral Space Force Station

Loading…

Next Passes (next 24 hours)

TLE

FreshSource: CelesTrak SupGP

Epoch: Sep 15, 2026, 00:54 UTC

1 51758C 22016AW  26258.03798611 -.00010447  00000+0 -29892-3 0  2583
2 51758  53.1573 165.0170 0001281  84.8364 342.0264 15.35401509    12

Track STARLINK-3458 in real time with AllMySat

Download on the App Store